TimeEDT,TemperatureF,Dew PointF,Humidity,Sea Level PressureIn,VisibilityMPH,Wind Direction,Wind SpeedMPH,Gust SpeedMPH,PrecipitationIn,Events,Conditions,WindDirDegrees,DateUTC
12:53 AM,46.0,37.0,71,29.81,10.0,Variable,3.5,-,N/A,,Partly Cloudy,0,2012-10-11 04:53:00
1:53 AM,44.1,37.0,76,29.81,10.0,Calm,Calm,-,N/A,,Scattered Clouds,0,2012-10-11 05:53:00
2:53 AM,44.1,36.0,73,29.82,10.0,Calm,Calm,-,N/A,,Overcast,0,2012-10-11 06:53:00
3:53 AM,45.0,35.1,68,29.84,10.0,Variable,6.9,17.3,N/A,,Scattered Clouds,0,2012-10-11 07:53:00
4:53 AM,45.0,35.1,68,29.89,10.0,West,8.1,-,N/A,,Overcast,260,2012-10-11 08:53:00
5:53 AM,43.0,34.0,71,29.93,10.0,Calm,Calm,-,N/A,,Mostly Cloudy,0,2012-10-11 09:53:00
6:53 AM,42.1,32.0,67,29.96,10.0,Variable,3.5,-,N/A,,Mostly Cloudy,0,2012-10-11 10:53:00
7:53 AM,43.0,34.0,71,29.99,10.0,Calm,Calm,-,N/A,,Clear,0,2012-10-11 11:53:00
8:53 AM,46.9,33.1,59,30.01,10.0,West,10.4,-,N/A,,Clear,270,2012-10-11 12:53:00
9:53 AM,48.9,30.9,50,30.03,10.0,Variable,5.8,18.4,N/A,,Partly Cloudy,0,2012-10-11 13:53:00
10:53 AM,48.0,30.0,50,30.04,10.0,Variable,5.8,19.6,N/A,,Mostly Cloudy,0,2012-10-11 14:53:00
11:53 AM,48.9,30.9,50,30.05,10.0,West,4.6,-,N/A,,Overcast,280,2012-10-11 15:53:00
12:53 PM,53.1,28.0,38,30.04,10.0,WSW,8.1,20.7,N/A,,Mostly Cloudy,250,2012-10-11 16:53:00
1:53 PM,52.0,26.1,37,30.04,10.0,West,9.2,17.3,N/A,,Mostly Cloudy,280,2012-10-11 17:53:00
2:53 PM,53.1,24.1,32,30.03,10.0,WNW,10.4,18.4,N/A,,Partly Cloudy,290,2012-10-11 18:53:00
3:53 PM,53.1,25.0,34,30.04,10.0,SW,9.2,-,N/A,,Mostly Cloudy,220,2012-10-11 19:53:00
4:53 PM,51.1,27.0,39,30.04,10.0,WSW,8.1,-,N/A,,Overcast,240,2012-10-11 20:53:00
6:53 PM,48.9,30.9,50,30.04,10.0,Variable,3.5,-,0.00,,Overcast,0,2012-10-11 22:53:00
7:53 PM,46.9,34.0,61,30.03,10.0,SSW,3.5,-,N/A,,Overcast,200,2012-10-11 23:53:00
8:53 PM,46.0,34.0,63,30.02,10.0,Calm,Calm,-,N/A,,Overcast,0,2012-10-12 00:53:00
9:53 PM,46.0,33.1,61,29.99,10.0,South,4.6,-,N/A,,Overcast,180,2012-10-12 01:53:00
10:53 PM,46.9,33.1,59,29.97,10.0,South,6.9,-,N/A,,Overcast,170,2012-10-12 02:53:00